WEINA 2 (47303 NORAD) Tracking and Keplerian Element Data

This shows tracking and keplerian element data for the satellite.

Feedback or suggestion? Click here.




ElementValue
Catalog47303
NameWEINA 2
Epoch Orbit937
Epoch Day60.86593957
Epoch Year2021
RAAN310.6047
Inclination98.268
Eccentricity0.0001158
Argument of Perigee59.8244
Mean Anonmoly300.3074
Mean Motion14.59138233
Decay Rate2.03E-06
L11 47303U 20103B 21060.86593957 .00000203 00000-0 53111-4 0 9994
L22 47303 98.2680 310.6047 0001158 59.8244 300.3074 14.59138233 9375

Live tracking and technical data element details for WEINA 2 (NORAD 47303). WEINA 2 can be tracked NOW for your location showing map with azimuth and elevation plus other details from your city location.

Track the satellite on the map from your city or location and see movement details for azimuth, elevation, latitude, longitude, range, height, and movement on the map or in text.







IsCatalogInMostPopularTable: catalog: 47303, numindb: 21
Update: records affected: 1



GetName: 47303 WEINA 2

Hit Count: updated at: Tue, 02 Mar 2021 14:45:45 GMT